^^
Station Historical Data
Daily Summary for September 2, 2021 Units:  English    Metric   Both
Daily Weekly Monthly Yearly
  High: Low: Average:
Temperature: 71.5 °F 65.2 °F 67.9 °F
Dew Point: 60.2 °F 48.6 °F 55.9 °F
Humidity: 82% 47% 66%
Wind Speed: 4mph 2mph 2.9mph
Wind Gust: 9mph - -
Wind- - SSE
Pressure: 30.11 in 29.99 in -
Precipitation: 0.00 in    
 
 
Tabular Data for September 2, 2021
Time Temperature Dew Point Pressure Wind Wind Speed Wind Gust Humidity Rainfall Rate (Hourly) solar
00:00 67.9 °F 55.3 °F 30.00 in North 3 mph 4 mph 64% 0.00 in 0 W/m2
00:05 67.8 °F 55.2 °F 30.00 in NW 3 mph 5 mph 64% 0.00 in 0 W/m2
00:10 67.8 °F 55.2 °F 30.00 in NNW 3 mph 3 mph 64% 0.00 in 0 W/m2
00:15 67.7 °F 55.1 °F 29.99 in SE 3 mph 3 mph 64% 0.00 in 0 W/m2
00:20 67.6 °F 54.6 °F 30.00 in NE 3 mph 3 mph 63% 0.00 in 0 W/m2
00:25 67.6 °F 55 °F 29.99 in WSW 3 mph 3 mph 64% 0.00 in 0 W/m2
00:30 67.5 °F 54.5 °F 29.99 in NNW 3 mph 3 mph 63% 0.00 in 0 W/m2
00:35 67.5 °F 54.5 °F 29.99 in North 3 mph 3 mph 63% 0.00 in 0 W/m2
00:40 67.5 °F 54.9 °F 29.99 in North 3 mph 7 mph 64% 0.00 in 0 W/m2
00:45 67.5 °F 54.5 °F 29.99 in NE 3 mph 7 mph 63% 0.00 in 0 W/m2
00:50 67.5 °F 54.5 °F 29.99 in ENE 3 mph 3 mph 63% 0.00 in 0 W/m2
00:55 67.5 °F 54.5 °F 29.99 in East 3 mph 3 mph 63% 0.00 in 0 W/m2
01:00 67.4 °F 53.9 °F 29.99 in NW 3 mph 3 mph 62% 0.00 in 0 W/m2
01:05 67.4 °F 53.5 °F 30.00 in SSE 3 mph 3 mph 61% 0.00 in 0 W/m2
01:10 67.4 °F 53.5 °F 30.00 in NNE 3 mph 3 mph 61% 0.00 in 0 W/m2
01:15 67.4 °F 53.9 °F 30.00 in NNE 3 mph 3 mph 62% 0.00 in 0 W/m2
01:20 67.4 °F 53.9 °F 30.00 in North 3 mph 3 mph 62% 0.00 in 0 W/m2
01:25 67.4 °F 53.5 °F 30.00 in ENE 3 mph 3 mph 61% 0.00 in 0 W/m2
01:30 67.4 °F 53.9 °F 30.00 in NNW 3 mph 7 mph 62% 0.00 in 0 W/m2
01:35 67.4 °F 53.9 °F 30.00 in SSE 3 mph 7 mph 62% 0.00 in 0 W/m2
01:40 67.4 °F 53.9 °F 30.00 in South 3 mph 3 mph 62% 0.00 in 0 W/m2
01:45 67.4 °F 53.5 °F 30.00 in SE 3 mph 3 mph 61% 0.00 in 0 W/m2
01:50 67.5 °F 54.5 °F 30.00 in North 3 mph 3 mph 63% 0.00 in 0 W/m2
01:55 67.5 °F 54.9 °F 30.00 in NE 3 mph 5 mph 64% 0.00 in 0 W/m2
02:00 67.5 °F 54.9 °F 30.00 in NNW 3 mph 3 mph 64% 0.00 in 0 W/m2
02:05 67.4 °F 55.6 °F 30.00 in NNE 3 mph 5 mph 66% 0.00 in 0 W/m2
02:10 67.4 °F 56.1 °F 30.00 in NNE 3 mph 3 mph 67% 0.00 in 0 W/m2
02:15 67.4 °F 56.5 °F 30.00 in SSE 3 mph 3 mph 68% 0.00 in 0 W/m2
02:20 67.3 °F 56.8 °F 30.00 in North 3 mph 3 mph 69% 0.00 in 0 W/m2
02:25 67.2 °F 57.1 °F 30.00 in ENE 3 mph 3 mph 70% 0.00 in 0 W/m2
02:30 67.2 °F 57.5 °F 30.00 in NE 3 mph 3 mph 71% 0.00 in 0 W/m2
02:35 67.1 °F 57.8 °F 30.00 in NW 2 mph 3 mph 72% 0.00 in 0 W/m2
02:40 67 °F 57.7 °F 29.99 in ENE 3 mph 3 mph 72% 0.00 in 0 W/m2
02:45 66.9 °F 58 °F 29.99 in West 3 mph 3 mph 73% 0.00 in 0 W/m2
02:50 66.9 °F 58 °F 29.99 in North 3 mph 3 mph 73% 0.00 in 0 W/m2
02:55 66.8 °F 57.5 °F 29.99 in North 3 mph 5 mph 72% 0.00 in 0 W/m2
03:00 66.7 °F 57.4 °F 29.99 in WNW 3 mph 3 mph 72% 0.00 in 0 W/m2
03:05 66.7 °F 57.8 °F 30.00 in NNE 4 mph 4 mph 73% 0.00 in 0 W/m2
03:10 66.8 °F 58.6 °F 30.00 in NW 3 mph 3 mph 75% 0.00 in 0 W/m2
03:15 66.8 °F 58.6 °F 29.99 in NW 3 mph 3 mph 75% 0.00 in 0 W/m2
03:20 66.7 °F 58.9 °F 29.99 in North 3 mph 3 mph 76% 0.00 in 0 W/m2
03:25 66.7 °F 59.3 °F 29.99 in North 4 mph 4 mph 77% 0.00 in 0 W/m2
03:30 66.6 °F 59.5 °F 29.99 in NE 4 mph 4 mph 78% 0.00 in 0 W/m2
03:35 66.5 °F 59.4 °F 29.99 in NW 4 mph 5 mph 78% 0.00 in 0 W/m2
03:40 66.3 °F 59.2 °F 29.99 in NNE 4 mph 4 mph 78% 0.00 in 0 W/m2
03:45 66.3 °F 59.6 °F 29.99 in NNE 4 mph 8 mph 79% 0.00 in 0 W/m2
03:50 66.1 °F 59 °F 30.00 in NNW 3 mph 3 mph 78% 0.00 in 0 W/m2
03:55 66 °F 59.3 °F 30.00 in SW 4 mph 4 mph 79% 0.00 in 0 W/m2
04:00 65.9 °F 59.2 °F 30.00 in NNW 4 mph 8 mph 79% 0.00 in 0 W/m2
04:05 65.9 °F 59.6 °F 30.00 in NW 4 mph 8 mph 80% 0.00 in 0 W/m2
04:10 65.9 °F 59.6 °F 30.00 in NNW 4 mph 4 mph 80% 0.00 in 0 W/m2
04:15 65.9 °F 59.6 °F 30.00 in WNW 4 mph 4 mph 80% 0.00 in 0 W/m2
04:20 65.8 °F 59.5 °F 30.00 in SE 4 mph 5 mph 80% 0.00 in 0 W/m2
04:25 65.8 °F 59.8 °F 30.00 in NNW 4 mph 5 mph 81% 0.00 in 0 W/m2
04:30 65.7 °F 59.7 °F 30.00 in NW 3 mph 3 mph 81% 0.00 in 0 W/m2
04:35 65.7 °F 59.7 °F 30.00 in ENE 4 mph 4 mph 81% 0.00 in 0 W/m2
04:40 65.6 °F 59.6 °F 30.00 in NW 3 mph 5 mph 81% 0.00 in 0 W/m2
04:45 65.6 °F 59.6 °F 30.00 in SW 4 mph 5 mph 81% 0.00 in 0 W/m2
04:50 65.6 °F 59.6 °F 30.00 in NW 4 mph 4 mph 81% 0.00 in 0 W/m2
04:55 65.6 °F 60 °F 30.00 in ENE 3 mph 4 mph 82% 0.00 in 0 W/m2
05:00 65.7 °F 59.7 °F 30.00 in NNW 3 mph 3 mph 81% 0.00 in 0 W/m2
05:05 65.6 °F 59.6 °F 30.00 in NW 3 mph 3 mph 81% 0.00 in 0 W/m2
05:10 65.7 °F 59.7 °F 30.01 in NNW 4 mph 4 mph 81% 0.00 in 0 W/m2
05:15 65.8 °F 60.2 °F 30.01 in NW 4 mph 5 mph 82% 0.00 in 0 W/m2
05:20 65.8 °F 60.2 °F 30.01 in NNW 4 mph 4 mph 82% 0.00 in 0 W/m2
05:25 65.8 °F 59.8 °F 30.01 in NNW 4 mph 4 mph 81% 0.00 in 0 W/m2
05:30 65.8 °F 59.5 °F 30.01 in NE 3 mph 3 mph 80% 0.00 in 0 W/m2
05:35 65.8 °F 59.8 °F 30.01 in NW 3 mph 5 mph 81% 0.00 in 0 W/m2
05:40 65.8 °F 59.8 °F 30.02 in SE 3 mph 3 mph 81% 0.00 in 0 W/m2
05:45 65.8 °F 59.5 °F 30.02 in ESE 3 mph 3 mph 80% 0.00 in 0 W/m2
05:50 65.8 °F 59.5 °F 30.02 in SE 3 mph 3 mph 80% 0.00 in 0 W/m2
05:55 65.8 °F 59.5 °F 30.02 in ENE 3 mph 3 mph 80% 0.00 in 0 W/m2
06:00 65.8 °F 59.5 °F 30.02 in North 3 mph 3 mph 80% 0.00 in 0 W/m2
06:05 65.7 °F 59 °F 30.03 in NNW 3 mph 3 mph 79% 0.00 in 0 W/m2
06:10 65.8 °F 59.5 °F 30.03 in NNW 3 mph 3 mph 80% 0.00 in 0 W/m2
06:15 65.8 °F 59.5 °F 30.03 in NE 3 mph 3 mph 80% 0.00 in 0 W/m2
06:20 65.8 °F 59.5 °F 30.03 in NW 3 mph 3 mph 80% 0.00 in 0 W/m2
06:25 65.7 °F 59.4 °F 30.04 in WNW 3 mph 3 mph 80% 0.00 in 0 W/m2
06:30 65.7 °F 59 °F 30.04 in NNE 3 mph 6 mph 79% 0.00 in 0 W/m2
06:35 65.6 °F 58.9 °F 30.04 in NW 3 mph 6 mph 79% 0.00 in 0 W/m2
06:40 65.6 °F 58.9 °F 30.04 in NNW 2 mph 4 mph 79% 0.00 in 0 W/m2
06:45 65.6 °F 58.6 °F 30.04 in North 3 mph 4 mph 78% 0.00 in 0 W/m2
06:50 65.5 °F 58.5 °F 30.05 in NNW 3 mph 3 mph 78% 0.00 in 0 W/m2
06:55 65.6 °F 58.6 °F 30.05 in NW 2 mph 3 mph 78% 0.00 in 5 W/m2
07:00 65.6 °F 58.2 °F 30.05 in NNE 3 mph 5 mph 77% 0.00 in 5 W/m2
07:05 65.6 °F 58.2 °F 30.05 in NNW 3 mph 5 mph 77% 0.00 in 9 W/m2
07:10 65.6 °F 58.2 °F 30.06 in NE 3 mph 3 mph 77% 0.00 in 11 W/m2
07:15 65.6 °F 58.2 °F 30.06 in NNW 3 mph 4 mph 77% 0.00 in 12 W/m2
07:20 65.7 °F 59 °F 30.06 in North 3 mph 5 mph 79% 0.00 in 14 W/m2
07:25 65.7 °F 59 °F 30.06 in NNW 4 mph 7 mph 79% 0.00 in 18 W/m2
07:30 65.6 °F 58.9 °F 30.06 in NW 4 mph 4 mph 79% 0.00 in 19 W/m2
07:35 65.5 °F 58.8 °F 30.06 in NNE 3 mph 4 mph 79% 0.00 in 21 W/m2
07:40 65.3 °F 58.3 °F 30.06 in NNW 2 mph 6 mph 78% 0.00 in 23 W/m2
07:45 65.3 °F 58.6 °F 30.07 in ENE 3 mph 6 mph 79% 0.00 in 25 W/m2
07:50 65.3 °F 59 °F 30.06 in NNW 3 mph 5 mph 80% 0.00 in 26 W/m2
07:55 65.2 °F 58.9 °F 30.06 in NNW 3 mph 5 mph 80% 0.00 in 28 W/m2
08:00 65.2 °F 58.5 °F 30.07 in NNE 3 mph 3 mph 79% 0.00 in 30 W/m2
08:05 65.3 °F 59 °F 30.07 in West 3 mph 3 mph 80% 0.00 in 33 W/m2
08:10 65.3 °F 59 °F 30.07 in ESE 3 mph 3 mph 80% 0.00 in 54 W/m2
08:15 65.3 °F 58.6 °F 30.07 in NE 3 mph 3 mph 79% 0.00 in 33 W/m2
08:20 65.3 °F 57.9 °F 30.08 in South 3 mph 3 mph 77% 0.00 in 35 W/m2
08:25 65.4 °F 58.4 °F 30.07 in West 3 mph 3 mph 78% 0.00 in 39 W/m2
08:30 65.6 °F 58.6 °F 30.08 in North 3 mph 3 mph 78% 0.00 in 202 W/m2
08:35 65.7 °F 58.3 °F 30.08 in NNE 3 mph 3 mph 77% 0.00 in 218 W/m2
08:40 65.8 °F 58 °F 30.08 in WNW 3 mph 3 mph 76% 0.00 in 232 W/m2
08:50 66.1 °F 57.6 °F 30.08 in NE 3 mph 3 mph 74% 0.00 in 262 W/m2
08:55 66.4 °F 57.5 °F 30.08 in SE 3 mph 3 mph 73% 0.00 in 278 W/m2
09:00 66.5 °F 57.2 °F 30.08 in NNE 3 mph 3 mph 72% 0.00 in 290 W/m2
09:05 66.7 °F 57.8 °F 30.09 in North 3 mph 3 mph 73% 0.00 in 306 W/m2
09:10 66.9 °F 57.2 °F 30.09 in NNW 3 mph 3 mph 71% 0.00 in 320 W/m2
09:15 67 °F 56.9 °F 30.09 in NW 3 mph 3 mph 70% 0.00 in 336 W/m2
09:20 67.2 °F 57.5 °F 30.09 in NNE 3 mph 3 mph 71% 0.00 in 350 W/m2
09:25 67.4 °F 57.7 °F 30.09 in NNW 3 mph 8 mph 71% 0.00 in 364 W/m2
09:30 67.6 °F 57.5 °F 30.09 in ENE 3 mph 3 mph 70% 0.00 in 146 W/m2
09:35 67.8 °F 58.1 °F 30.09 in NNE 3 mph 9 mph 71% 0.00 in 72 W/m2
09:40 67.9 °F 57.4 °F 30.09 in North 2 mph 6 mph 69% 0.00 in 86 W/m2
09:45 68.1 °F 57.5 °F 30.09 in NW 3 mph 6 mph 69% 0.00 in 86 W/m2
09:50 68.2 °F 57.6 °F 30.09 in NW 3 mph 7 mph 69% 0.00 in 431 W/m2
09:55 68.2 °F 56.8 °F 30.09 in NNE 4 mph 7 mph 67% 0.00 in 443 W/m2
10:00 68.3 °F 56.9 °F 30.10 in ENE 4 mph 4 mph 67% 0.00 in 434 W/m2
10:05 68.4 °F 57.4 °F 30.10 in NW 4 mph 5 mph 68% 0.00 in 239 W/m2
10:10 68.4 °F 56.6 °F 30.10 in NE 3 mph 3 mph 66% 0.00 in 338 W/m2
10:15 68.4 °F 57.4 °F 30.10 in South 3 mph 3 mph 68% 0.00 in 494 W/m2
10:20 68.4 °F 56.6 °F 30.10 in WSW 3 mph 3 mph 66% 0.00 in 512 W/m2
10:25 68.4 °F 56.2 °F 30.10 in ENE 3 mph 3 mph 65% 0.00 in 524 W/m2
10:30 68.5 °F 56.3 °F 30.10 in West 3 mph 3 mph 65% 0.00 in 536 W/m2
10:35 68.4 °F 55.7 °F 30.10 in NE 3 mph 3 mph 64% 0.00 in 548 W/m2
10:40 68.5 °F 55.8 °F 30.10 in NNW 3 mph 3 mph 64% 0.00 in 561 W/m2
10:45 68.5 °F 55.8 °F 30.10 in South 3 mph 3 mph 64% 0.00 in 573 W/m2
10:50 68.6 °F 55.1 °F 30.10 in ENE 3 mph 3 mph 62% 0.00 in 582 W/m2
10:55 68.6 °F 54.6 °F 30.10 in West 3 mph 3 mph 61% 0.00 in 591 W/m2
11:00 68.6 °F 54.6 °F 30.10 in North 3 mph 5 mph 61% 0.00 in 603 W/m2
11:05 68.7 °F 54.7 °F 30.10 in NE 3 mph 5 mph 61% 0.00 in 613 W/m2
11:10 68.8 °F 54.3 °F 30.10 in NE 2 mph 2 mph 60% 0.00 in 624 W/m2
11:15 68.9 °F 54.4 °F 30.09 in NNW 2 mph 3 mph 60% 0.00 in 638 W/m2
11:20 68.9 °F 53.5 °F 30.10 in North 3 mph 3 mph 58% 0.00 in 649 W/m2
11:25 69 °F 54.1 °F 30.10 in NE 3 mph 4 mph 59% 0.00 in 654 W/m2
11:30 69.2 °F 53.8 °F 30.10 in North 2 mph 2 mph 58% 0.00 in 663 W/m2
11:35 69.2 °F 52.3 °F 30.10 in NNW 2 mph 4 mph 55% 0.00 in 677 W/m2
11:40 69.2 °F 50.8 °F 30.10 in East 2 mph 2 mph 52% 0.00 in 686 W/m2
11:45 69.3 °F 49.3 °F 30.10 in ESE 2 mph 3 mph 49% 0.00 in 698 W/m2
11:50 69.3 °F 49.3 °F 30.10 in NNE 3 mph 4 mph 49% 0.00 in 698 W/m2
11:55 69.5 °F 51.1 °F 30.10 in NNE 3 mph 4 mph 52% 0.00 in 707 W/m2
12:00 69.7 °F 50.2 °F 30.10 in NE 3 mph 3 mph 50% 0.00 in 715 W/m2
12:05 69.7 °F 48.6 °F 30.10 in NE 3 mph 3 mph 47% 0.00 in 722 W/m2
12:10 69.9 °F 49.9 °F 30.10 in NNW 4 mph 6 mph 49% 0.00 in 726 W/m2
12:15 70 °F 50.5 °F 30.11 in North 4 mph 6 mph 50% 0.00 in 733 W/m2
12:20 70 °F 50 °F 30.10 in NE 3 mph 3 mph 49% 0.00 in 738 W/m2
12:25 70.1 °F 50 °F 30.10 in East 3 mph 3 mph 49% 0.00 in 745 W/m2
12:30 70 °F 49.4 °F 30.10 in WSW 3 mph 4 mph 48% 0.00 in 751 W/m2
12:35 69.9 °F 49.9 °F 30.10 in SE 3 mph 5 mph 49% 0.00 in 752 W/m2
12:40 70.1 °F 49.5 °F 30.10 in NE 3 mph 3 mph 48% 0.00 in 759 W/m2
12:45 70.3 °F 51.3 °F 30.10 in NNE 2 mph 3 mph 51% 0.00 in 765 W/m2
12:50 70.6 °F 51.6 °F 30.10 in NNE 2 mph 3 mph 51% 0.00 in 766 W/m2
12:55 70.4 °F 50.3 °F 30.10 in WNW 2 mph 3 mph 49% 0.00 in 770 W/m2
13:00 70.6 °F 51.1 °F 30.10 in South 3 mph 3 mph 50% 0.00 in 775 W/m2
13:05 70.9 °F 52.4 °F 30.10 in SE 3 mph 3 mph 52% 0.00 in 777 W/m2
13:10 70.7 °F 51.1 °F 30.10 in NW 2 mph 2 mph 50% 0.00 in 780 W/m2
13:15 70.8 °F 52.3 °F 30.10 in NNW 2 mph 2 mph 52% 0.00 in 780 W/m2
13:20 71 °F 52 °F 30.10 in ENE 2 mph 2 mph 51% 0.00 in 780 W/m2
13:25 71 °F 52.5 °F 30.10 in NNW 2 mph 3 mph 52% 0.00 in 782 W/m2
13:30 71.3 °F 52.2 °F 30.10 in ESE 2 mph 2 mph 51% 0.00 in 782 W/m2
13:35 70.8 °F 52.8 °F 30.10 in South 2 mph 2 mph 53% 0.00 in 782 W/m2
13:40 71.1 °F 52 °F 30.10 in East 2 mph 2 mph 51% 0.00 in 784 W/m2
13:45 70.8 °F 51.8 °F 30.10 in East 2 mph 2 mph 51% 0.00 in 784 W/m2
13:50 71.1 °F 53.1 °F 30.10 in ENE 2 mph 2 mph 53% 0.00 in 784 W/m2
13:55 71.5 °F 52.4 °F 30.10 in North 2 mph 2 mph 51% 0.00 in 784 W/m2
14:00 70.9 °F 52.4 °F 30.10 in ENE 2 mph 2 mph 52% 0.00 in 784 W/m2
14:05 70.5 °F 51 °F 30.10 in NNE 2 mph 2 mph 50% 0.00 in 780 W/m2
14:10 70.4 °F 52.4 °F 30.10 in NNE 2 mph 2 mph 53% 0.00 in 777 W/m2
14:15 70.7 °F 52.2 °F 30.10 in ENE 2 mph 6 mph 52% 0.00 in 775 W/m2
14:20 70.6 °F 53.6 °F 30.10 in NNE 2 mph 2 mph 55% 0.00 in 772 W/m2
14:25 70.7 °F 54.2 °F 30.09 in East 2 mph 5 mph 56% 0.00 in 768 W/m2
14:30 71.2 °F 54.7 °F 30.09 in East 2 mph 2 mph 56% 0.00 in 766 W/m2
14:35 71.4 °F 53.9 °F 30.09 in ESE 2 mph 2 mph 54% 0.00 in 765 W/m2
14:40 71 °F 53 °F 30.09 in ESE 2 mph 3 mph 53% 0.00 in 758 W/m2
14:45 71.2 °F 53.7 °F 30.09 in East 2 mph 3 mph 54% 0.00 in 756 W/m2
14:50 70.8 °F 54.3 °F 30.09 in ENE 2 mph 2 mph 56% 0.00 in 751 W/m2
14:55 70.5 °F 53.6 °F 30.08 in East 2 mph 3 mph 55% 0.00 in 745 W/m2
15:00 70.7 °F 53.7 °F 30.09 in NW 2 mph 2 mph 55% 0.00 in 742 W/m2
15:05 70.7 °F 53.2 °F 30.08 in East 2 mph 2 mph 54% 0.00 in 731 W/m2
15:10 70.8 °F 52.8 °F 30.08 in NW 2 mph 2 mph 53% 0.00 in 728 W/m2
15:15 70.7 °F 53.7 °F 30.08 in ENE 2 mph 2 mph 55% 0.00 in 721 W/m2
15:20 70.4 °F 53.5 °F 30.08 in NE 2 mph 2 mph 55% 0.00 in 710 W/m2
15:25 70.6 °F 54.1 °F 30.08 in NE 2 mph 4 mph 56% 0.00 in 705 W/m2
15:30 70.5 °F 53.1 °F 30.08 in ENE 2 mph 2 mph 54% 0.00 in 698 W/m2
15:35 70.4 °F 54.4 °F 30.08 in East 2 mph 2 mph 57% 0.00 in 691 W/m2
15:40 70.2 °F 53.8 °F 30.08 in NE 2 mph 2 mph 56% 0.00 in 684 W/m2
15:45 70.5 °F 54 °F 30.08 in East 2 mph 2 mph 56% 0.00 in 673 W/m2
15:50 70.6 °F 54.1 °F 30.08 in East 2 mph 2 mph 56% 0.00 in 664 W/m2
15:55 70.5 °F 54 °F 30.08 in NE 2 mph 2 mph 56% 0.00 in 657 W/m2
16:00 70.3 °F 54.3 °F 30.08 in East 2 mph 2 mph 57% 0.00 in 649 W/m2
16:05 70.5 °F 53.6 °F 30.08 in ESE 2 mph 2 mph 55% 0.00 in 638 W/m2
16:10 70.4 °F 53.5 °F 30.08 in ESE 2 mph 2 mph 55% 0.00 in 626 W/m2
16:15 70.5 °F 54 °F 30.08 in ENE 2 mph 2 mph 56% 0.00 in 617 W/m2
16:20 70.5 °F 54 °F 30.08 in West 2 mph 2 mph 56% 0.00 in 606 W/m2
16:25 71 °F 55 °F 30.08 in NE 2 mph 2 mph 57% 0.00 in 594 W/m2
Sand Point, Michigan, USA
Compliments of Weather Underground - 2 mb